User: anonymous   Login
Location: Unspecified
(0.0000°N, 0.0000°E)
Time: 01:56:40
(UTC+00:00)
Language:

N. Korean satellite - Orbit

View from above orbital plane
View from above orbital plane
View from above satellite
View from above satellite

Ground track
Ground track

The orbit data is extracted from the following two-line orbital elements,

1 39026U 12072A   15085.11703304  .00010754  00000-0  50356-3 0  9999
2 39026 097.2926 119.5184 0048423 164.3963 195.8778 15.18832109126090
Epoch (UTC): 26 March 2015 02:48:31
Eccentricity: 0.0048423
inclination: 97.2926°
perigee height: 476 km
apogee height: 543 km
right ascension of ascending node: 119.5184°
argument of perigee: 164.3963°
revolutions per day: 15.18832109
mean anomaly at epoch: 195.8778°
orbit number at epoch: 12609

The dashed part of the orbit path shows where the satellite is in the earth's shadow,  

DLR